TimeCST,TemperatureF,Dew PointF,Humidity,Sea Level PressureIn,VisibilityMPH,Wind Direction,Wind SpeedMPH,Gust SpeedMPH,PrecipitationIn,Events,Conditions,WindDirDegrees,DateUTC
12:12 AM,11.3,2.3,67,29.75,10.0,NW,10.4,13.8,N/A,,Clear,310,2013-01-31 06:12:00
12:32 AM,10.6,2.3,69,29.75,10.0,WNW,10.4,18.4,N/A,,Scattered Clouds,300,2013-01-31 06:32:00
12:52 AM,10.2,1.9,69,29.76,10.0,NW,12.7,17.3,N/A,,Overcast,310,2013-01-31 06:52:00
1:12 AM,9.5,1.4,70,29.76,10.0,WNW,15.0,18.4,N/A,,Mostly Cloudy,290,2013-01-31 07:12:00
1:32 AM,9.3,1.0,69,29.77,10.0,WNW,11.5,19.6,N/A,,Scattered Clouds,300,2013-01-31 07:32:00
1:52 AM,9.1,0.5,68,29.77,10.0,NW,17.3,23.0,N/A,,Overcast,310,2013-01-31 07:52:00
2:12 AM,9.1,1.0,70,29.78,10.0,NW,12.7,16.1,N/A,,Overcast,310,2013-01-31 08:12:00
2:32 AM,9.0,1.0,70,29.78,10.0,NW,9.2,18.4,N/A,,Scattered Clouds,310,2013-01-31 08:32:00
2:52 AM,8.6,1.4,73,29.78,10.0,NW,13.8,19.6,N/A,,Scattered Clouds,310,2013-01-31 08:52:00
3:12 AM,8.2,1.4,74,29.78,7.0,WNW,10.4,-,N/A,,Scattered Clouds,290,2013-01-31 09:12:00
3:32 AM,8.2,0.7,71,29.78,10.0,WNW,11.5,18.4,N/A,,Overcast,300,2013-01-31 09:32:00
3:52 AM,8.1,-0.4,68,29.79,10.0,NW,12.7,-,N/A,,Overcast,310,2013-01-31 09:52:00
4:12 AM,8.1,-0.4,68,29.80,10.0,NW,8.1,-,N/A,,Overcast,310,2013-01-31 10:12:00
4:32 AM,7.5,-0.4,70,29.81,10.0,WNW,12.7,16.1,N/A,,Overcast,300,2013-01-31 10:32:00
4:52 AM,7.3,-0.9,69,29.82,10.0,WNW,11.5,16.1,N/A,,Overcast,300,2013-01-31 10:52:00
5:12 AM,7.2,-1.3,68,29.82,10.0,NW,12.7,16.1,N/A,,Overcast,320,2013-01-31 11:12:00
5:32 AM,6.8,-1.3,69,29.83,10.0,NW,12.7,18.4,N/A,,Overcast,310,2013-01-31 11:32:00
5:52 AM,6.8,-1.3,69,29.83,10.0,NW,15.0,19.6,N/A,,Overcast,320,2013-01-31 11:52:00
6:12 AM,6.6,-1.5,69,29.85,10.0,NW,13.8,20.7,N/A,,Overcast,320,2013-01-31 12:12:00
6:32 AM,6.6,-1.3,70,29.86,7.0,NW,13.8,19.6,N/A,,Overcast,310,2013-01-31 12:32:00
6:52 AM,5.9,-1.5,72,29.86,4.0,WNW,13.8,20.7,N/A,,Haze,290,2013-01-31 12:52:00
7:12 AM,5.5,-2.6,69,29.87,5.0,NW,15.0,21.9,N/A,,Haze,310,2013-01-31 13:12:00
7:32 AM,5.5,-1.5,73,29.88,4.0,WNW,10.4,20.7,N/A,,Haze,300,2013-01-31 13:32:00
7:52 AM,5.4,-2.6,70,29.89,7.0,NW,15.0,19.6,N/A,,Overcast,310,2013-01-31 13:52:00
8:12 AM,4.8,-3.3,69,29.90,5.0,WNW,15.0,19.6,N/A,,Haze,300,2013-01-31 14:12:00
8:32 AM,4.5,-4.0,68,29.91,10.0,NW,12.7,-,N/A,,Mostly Cloudy,310,2013-01-31 14:32:00
8:52 AM,3.9,-4.4,69,29.92,4.0,NW,20.7,27.6,N/A,,Haze,320,2013-01-31 14:52:00
9:17 AM,4.1,-4.5,67,29.93,5.0,NW,12.7,21.9,N/A,,Haze,310,2013-01-31 15:17:00
9:32 AM,4.1,-4.7,67,29.94,7.0,NW,11.5,23.0,N/A,,Clear,320,2013-01-31 15:32:00
9:52 AM,4.1,-4.5,67,29.96,7.0,NW,10.4,20.7,N/A,,Scattered Clouds,320,2013-01-31 15:52:00
10:12 AM,4.1,-4.7,67,29.97,7.0,NW,15.0,-,N/A,,Clear,320,2013-01-31 16:12:00
10:32 AM,4.1,-4.9,66,29.98,4.0,NW,13.8,20.7,N/A,,Haze,310,2013-01-31 16:32:00
10:52 AM,4.1,-5.1,66,29.99,5.0,WNW,17.3,21.9,N/A,,Haze,300,2013-01-31 16:52:00
11:12 AM,4.1,-4.9,66,29.99,7.0,NW,16.1,23.0,N/A,,Clear,310,2013-01-31 17:12:00
11:32 AM,4.1,-4.4,68,30.00,3.0,NW,13.8,24.2,N/A,,Haze,310,2013-01-31 17:32:00
11:52 AM,4.1,-4.0,69,30.00,2.5,NW,16.1,24.2,N/A,,Haze,320,2013-01-31 17:52:00
12:12 PM,4.3,-4.4,67,30.01,3.0,NNW,15.0,-,N/A,,Haze,330,2013-01-31 18:12:00
12:32 PM,4.1,-5.4,65,30.02,5.0,NW,16.1,21.9,N/A,,Haze,320,2013-01-31 18:32:00
12:52 PM,5.0,-3.8,67,30.02,3.0,NW,17.3,21.9,N/A,,Haze,310,2013-01-31 18:52:00
1:12 PM,4.8,-4.9,64,30.02,5.0,NW,15.0,23.0,N/A,,Haze,320,2013-01-31 19:12:00
1:32 PM,4.5,-5.4,64,30.03,4.0,NW,17.3,23.0,N/A,,Haze,310,2013-01-31 19:32:00
1:52 PM,4.1,-6.2,63,30.04,7.0,NW,17.3,25.3,N/A,,Clear,320,2013-01-31 19:52:00
2:12 PM,4.5,-6.0,62,30.04,10.0,NW,15.0,19.6,N/A,,Clear,320,2013-01-31 20:12:00
2:32 PM,4.5,-5.8,63,30.05,5.0,NW,16.1,26.5,N/A,,Haze,320,2013-01-31 20:32:00
2:52 PM,4.8,-6.3,60,30.06,10.0,NW,13.8,26.5,N/A,,Clear,320,2013-01-31 20:52:00
3:12 PM,4.8,-5.3,63,30.07,7.0,NW,19.6,25.3,N/A,,Clear,320,2013-01-31 21:12:00
3:32 PM,5.0,-5.4,62,30.08,10.0,NW,18.4,21.9,N/A,,Clear,310,2013-01-31 21:32:00
3:52 PM,4.6,-6.0,62,30.08,7.0,NW,18.4,25.3,N/A,,Clear,310,2013-01-31 21:52:00
4:12 PM,4.5,-5.4,64,30.10,7.0,NW,15.0,21.9,N/A,,Clear,310,2013-01-31 22:12:00
4:32 PM,4.6,-6.5,60,30.11,10.0,NW,13.8,20.7,N/A,,Clear,310,2013-01-31 22:32:00
4:52 PM,4.1,-7.6,58,30.12,10.0,WNW,16.1,24.2,N/A,,Clear,290,2013-01-31 22:52:00
5:12 PM,3.9,-7.2,60,30.13,10.0,WNW,9.2,-,N/A,,Clear,300,2013-01-31 23:12:00
5:32 PM,3.7,-8.0,58,30.13,10.0,WNW,17.3,20.7,N/A,,Clear,300,2013-01-31 23:32:00
6:12 PM,3.0,-8.0,60,30.15,10.0,WNW,10.4,24.2,N/A,,Clear,300,2013-02-01 00:12:00
6:32 PM,2.3,-8.5,61,30.16,10.0,WNW,9.2,19.6,N/A,,Clear,300,2013-02-01 00:32:00
6:52 PM,2.1,-8.5,61,30.17,10.0,WNW,12.7,19.6,N/A,,Clear,300,2013-02-01 00:52:00
7:12 PM,1.8,-8.9,61,30.17,10.0,WNW,11.5,18.4,N/A,,Clear,300,2013-02-01 01:12:00
7:32 PM,0.9,-9.6,62,30.18,10.0,WNW,10.4,17.3,N/A,,Clear,300,2013-02-01 01:32:00
7:52 PM,0.3,-9.8,63,30.19,10.0,WNW,9.2,-,N/A,,Clear,300,2013-02-01 01:52:00
8:12 PM,-0.0,-10.3,62,30.20,10.0,WNW,9.2,16.1,N/A,,Clear,300,2013-02-01 02:12:00
8:32 PM,-0.6,-10.5,63,30.21,10.0,WNW,9.2,-,N/A,,Clear,300,2013-02-01 02:32:00
8:52 PM,-0.9,-10.7,63,30.22,10.0,WNW,6.9,-,N/A,,Clear,290,2013-02-01 02:52:00
9:12 PM,-1.8,-11.4,64,30.22,10.0,WNW,10.4,16.1,N/A,,Clear,290,2013-02-01 03:12:00
9:32 PM,-2.2,-12.1,63,30.23,10.0,WNW,10.4,-,N/A,,Clear,290,2013-02-01 03:32:00
10:12 PM,-3.1,-12.8,63,30.24,10.0,WNW,9.2,-,N/A,,Clear,290,2013-02-01 04:12:00
10:32 PM,-3.5,-13.0,64,30.24,10.0,WNW,10.4,17.3,N/A,,Clear,300,2013-02-01 04:32:00
11:12 PM,-4.2,-13.9,63,30.25,10.0,WNW,8.1,16.1,N/A,,Clear,290,2013-02-01 05:12:00
11:32 PM,-4.4,-14.6,61,30.26,10.0,WNW,10.4,-,N/A,,Clear,300,2013-02-01 05:32:00
11:52 PM,-4.9,-14.8,62,30.26,10.0,WNW,6.9,-,N/A,,Clear,300,2013-02-01 05:52:00